STARLINK-34407, 64347

Orbit data source: Space-Track

STARLINK-34407, 64347 is a payload satellite owned by SpaceX/Seattle (US) in LEO that was launched on Fri, 13 Jun 2025 UTC via an FALCON 9 launch vehicle from the Air Force Western Test Range (AFWTR). Payload-class satellites include a variety of spacecraft equipped with specific instruments for various scientific and technological missions. These include communications satellites like Starlink; space stations such as the ISS; scientific satellites like the Hubble; Earth observation satellites from companies like Planet Labs, Umbra, and HawkEye 360; GPS; miniature CubeSats for education and research; and military/defense satellites.

Loading next visibility...
Identifier
64347, 2025-126D
Orbit
LEO
Country
Flag of USUS
Related business
Manufacturer
SpaceX/Seattle
Mission
Operational Commercial Communications
Bus & Motor
STARLINK V2MO, Unknown motor
Mass
575 kg wet, ~530 kg dry
Launch date (UTC)
2025-06-13 (1 year ago)
Launch vehicle
FALCON 9
Launch site
Air Force Western Test Range (AFWTR)
Object type
Payload
Rocket body
Debris
Shape & HBR
Box + 2 Pan, 17.7 m
Radar Cross Section
36.964 m², Large (>1 m²)

Expand to show TLE details & history
Last TLE update: 12 hours ago

TLE from 12 hours ago
0 STARLINK-34407
1 64347U 25126D   26171.32953434  .00002365  00000-0  20593-3 0  9998
2 64347  70.0008 135.7699 0003800 263.3497  96.7230 14.98336436 56056
Epoch: 2026-06-20T07:54Z
TLE epoch observation values (Epoch: 2026-06-20T07:54:31.766Z)
Latitude
-0.00002°
Longitude
108.59182°
Altitude
574.77 km
Speed
7.574 km/s
True Right ascension
09h 03m 04s
True Declination
0° 00' 00"
Sunlit
Object was in daylight at epoch
Visualization orbit readout
Latitude
Unknown
Longitude
Unknown
Altitude
Unknown
Speed
Unknown
Apparent Right ascension
Unknown
Apparent Declination
Unknown
Sunlit
N/A
Visualization observer readout
Local Sidereal Time
07:12:09
Azimuth
Unknown
Elevation
Unknown
Doppler factor
Unknown
Orbital elements
Apogee altitude
572.624 km
Perigee altitude
567.344 km
Semi-major axis
6,948.121 km
Eccentricity
0.00038
Inclination
70.0008°
RAAN
135.7699°
Arg. of periapsis
263.3497°
True anomaly
96.76624°
Mean anomaly
96.723°
Eccentric anomaly
96.74462°
Mean motion
3.7475 °/min
Orbital period
96.06 mins
BSTAR
0.00020593
Loading maneuver chart data...
Computing Atmospheric mass density...
Loading historical data...
Loading historical data...
Loading historical data...
Loading historical data...
Loading historical data...
Loading historical data...
Loading historical data...

Documentation

Showing up to 5 results
|